Location: Orin
(42.6533°N, 105.1925°W)
Time: 08:13:02
(UTC-07:00)

Envisat - Visible Passes

Search period start: 27 November 2020 00:00
Search period end: 07 December 2020 00:00
Orbit: 764 x 766 km, 98.1° (Epoch: 27 November)

Date Brightness Start Highest point End Pass type
(mag) Time Alt. Az. Time Alt. Az. Time Alt. Az.
27 Nov 3.3 05:50:30 10° NNE 05:55:35 71° ESE 06:00:38 10° S visible
27 Nov 3.1 17:05:37 10° SSE 17:10:41 84° WSW 17:15:48 10° NNW visible
28 Nov 4.9 05:14:07 10° NNE 05:18:38 32° E 05:23:07 10° SSE visible
28 Nov 5.6 18:09:18 10° SW 18:13:12 22° W 18:17:07 10° NW visible
29 Nov 6.0 04:38:43 10° NE 04:41:29 15° E 04:44:14 10° ESE visible
29 Nov 3.0 06:15:56 10° N 06:20:59 68° WNW 06:26:01 10° SSW visible
29 Nov 4.1 17:31:16 10° S 17:36:09 48° W 17:41:04 10° NNW visible
30 Nov 3.8 05:39:11 10° NNE 05:44:10 55° E 05:49:09 10° S visible
30 Nov 3.0 16:54:15 10° SSE 16:59:18 78° ENE 17:04:24 10° N visible
30 Nov 6.2 18:36:48 10° WSW 18:38:54 12° W 18:41:01 10° WNW visible
01 Dec 5.3 05:02:59 10° NE 05:07:10 25° E 05:11:19 10° SSE visible
01 Dec 3.4 06:41:35 10° N 06:46:17 39° WNW 06:50:58 10° SW visible
01 Dec 5.2 17:57:25 10° SSW 18:01:43 28° W 18:06:03 10° NW visible
02 Dec 6.3 04:28:28 10° ENE 04:29:57 11° E 04:31:26 10° ESE visible
02 Dec 3.0 06:04:30 10° NNE 06:09:37 85° WNW 06:14:41 10° SSW visible
02 Dec 3.6 17:19:44 10° S 17:24:44 61° W 17:29:46 10° NNW visible
03 Dec 4.2 05:27:53 10° NNE 05:32:45 44° E 05:37:34 10° S visible
03 Dec 6.0 18:24:18 10° SW 18:27:23 16° W 18:30:28 10° NW visible
04 Dec 5.6 04:51:58 10° NE 04:55:41 20° E 04:59:22 10° SE visible
04 Dec 3.2 06:30:04 10° N 06:34:58 49° WNW 06:39:50 10° SW visible
04 Dec 4.8 17:45:39 10° SSW 17:50:15 35° W 17:54:53 10° NNW visible
05 Dec 3.2 05:53:07 10° NNE 05:58:13 77° ESE 06:03:17 10° S visible
05 Dec 3.2 17:08:15 10° S 17:13:19 78° WSW 17:18:26 10° NNW visible
06 Dec 4.7 05:16:40 10° NNE 05:21:18 34° E 05:25:54 10° SSE visible
06 Dec 5.7 18:12:09 10° SW 18:15:53 20° W 18:19:36 10° NW visible
